K1ADM Weather Reports


Display with metric or nautical units.
time (UTC)temp
F
wind
direction
speed
MPH
gust
MPH
rain 1hr
in
rain 24hr
in
rain mn
in
humidity
%
barometer
mb
20260504222002 65 162 1.0 1.0 0.00 0.01 0.01 52 1004.3
20260504221501 66 274 1.0 2.0 0.00 0.01 0.01 51 1004.3
20260504221001 66 237 0.0 1.0 0.00 0.01 0.01 52 1004.4
20260504220502 65 183 3.0 3.0 0.00 0.01 0.01 51 1004.4
20260504220002 65 252 1.0 2.0 0.00 0.01 0.01 52 1004.4
20260504215501 64 261 1.0 3.0 0.00 0.01 0.01 55 1004.4
20260504215001 64 217 2.0 5.0 0.00 0.01 0.01 54 1004.5
20260504214002 64 268 3.0 8.0 0.00 0.01 0.01 52 1004.5
20260504213001 65 270 5.0 9.0 0.00 0.01 0.01 51 1004.5
20260504212502 64 273 2.0 8.0 0.00 0.01 0.01 53 1004.3
20260504212002 64 293 5.0 9.0 0.00 0.01 0.01 51 1004.3
20260504211002 65 329 5.0 12.0 0.00 0.01 0.01 51 1004.1
20260504210502 65 292 3.0 7.0 0.00 0.01 0.01 52 1004.1
20260504210002 65 282 6.0 7.0 0.00 0.01 0.01 51 1004.1
20260504205001 65 270 10.0 14.0 0.00 0.01 0.01 51 1004.1
20260504204502 66 274 6.0 10.0 0.00 0.01 0.01 53 1004.2
20260504203501 64 22 7.0 10.0 0.00 0.01 0.01 52 1004.1
20260504203002 64 292 9.0 15.0 0.00 0.01 0.01 52 1004.1
20260504202502 64 275 9.0 14.0 0.00 0.01 0.01 52 1004.2
20260504202002 64 290 9.0 16.0 0.00 0.01 0.01 52 1004.2
20260504201002 64 280 7.0 14.0 0.00 0.01 0.01 52 1004.1
20260504200002 64 301 6.0 12.0 0.00 0.01 0.01 53 1004.1
20260504195502 65 257 5.0 9.0 0.00 0.01 0.01 52 1004.1
20260504195002 64 248 6.0 13.0 0.00 0.01 0.01 53 1004.3
20260504194502 65 280 6.0 13.0 0.00 0.01 0.01 53 1004.3
20260504194002 65 248 5.0 6.0 0.00 0.01 0.01 57 1004.3
20260504193501 64 270 3.0 7.0 0.00 0.01 0.01 58 1004.4
20260504193002 63 172 4.0 8.0 0.00 0.01 0.01 58 1004.4
20260504192002 63 277 5.0 7.0 0.00 0.01 0.01 60 1004.3
20260504191502 62 259 5.0 7.0 0.00 0.01 0.01 63 1004.3
20260504191002 62 270 5.0 9.0 0.00 0.01 0.01 63 1004.5
20260504190502 62 264 5.0 9.0 0.00 0.01 0.01 63 1004.5
20260504190002 62 271 4.0 8.0 0.00 0.01 0.01 65 1004.7
20260504185503 61 283 5.0 8.0 0.00 0.01 0.01 66 1004.7
20260504185002 59 270 6.0 12.0 0.00 0.01 0.01 67 1004.8
20260504184502 59 318 7.0 15.0 0.00 0.01 0.01 68 1004.9
20260504183502 58 270 2.0 6.0 0.00 0.01 0.01 73 1005.0
20260504183002 58 270 3.0 6.0 0.01 0.01 0.01 73 1005.0
20260504182002 57 278 2.0 6.0 0.01 0.01 0.01 76 1005.0
20260504181502 56 274 3.0 5.0 0.01 0.01 0.01 76 1005.0
20260504181002 56 294 3.0 6.0 0.01 0.01 0.01 76 1004.9
20260504180502 56 298 5.0 7.0 0.01 0.01 0.01 77 1004.9
20260504180002 55 279 5.0 8.0 0.01 0.01 0.01 77 1005.2
20260504175502 55 270 5.0 7.0 0.01 0.01 0.01 79 1005.2
20260504175002 54 270 3.0 6.0 0.01 0.01 0.01 80 1005.2
20260504174502 53 280 3.0 6.0 0.01 0.01 0.01 82 1005.3
20260504174002 53 203 3.0 6.0 0.01 0.01 0.01 82 1005.3
20260504173502 53 270 5.0 6.0 0.01 0.01 0.01 83 1005.3
20260504173002 53 270 5.0 6.0 0.00 0.00 0.00 81 1005.3
20260504172002 55 288 5.0 9.0 0.00 0.00 0.00 78 1005.0
20260504171502 55 270 5.0 7.0 0.00 0.00 0.00 76 1004.9
20260504171002 56 279 6.0 9.0 0.00 0.00 0.00 73 1004.8
20260504170503 57 263 6.0 8.0 0.00 0.00 0.00 68 1004.8
20260504151002 58 236 2.0 3.0 0.00 0.06 0.00 60 1005.0
20260504150502 59 202 3.0 5.0 0.00 0.06 0.00 59 1005.0
20260504141003 56 274 2.0 5.0 0.00 0.10 0.00 59 1006.0
20260504140502 56 146 2.0 5.0 0.00 0.11 0.00 61 1006.0
20260504130503 52 264 0.0 0.0 0.00 0.14 0.00 61 1006.7
20260504110502 43 221 0.0 0.0 0.00 0.16 0.00 70 1006.9
20260504100503 39 205 0.0 0.0 0.00 0.16 0.00 77 1006.7
20260504081503 39 255 0.0 0.0 0.00 0.20 0.00 78 1006.4
20260504081003 39 244 0.0 0.0 0.00 0.20 0.00 78 1006.5
20260504050503 41 248 0.0 0.0 0.00 0.21 0.00 71 1006.2
20260504050003 41 251 0.0 0.0 0.00 0.21 0.00 71 1006.1
20260504045504 41 240 0.0 0.0 0.00 0.21 0.00 71 1006.1
20260504045003 41 248 0.0 0.0 0.00 0.21 0.00 71 1006.1
20260504044504 41 253 0.0 0.0 0.00 0.21 0.00 71 1006.1
20260504044003 41 261 0.0 0.0 0.00 0.21 0.00 70 1006.1
20260504043003 41 257 0.0 2.0 0.00 0.21 0.00 70 1006.1
20260504042504 41 248 2.0 3.0 0.00 0.21 0.00 70 1006.1
20260504042003 41 262 2.0 3.0 0.00 0.21 0.00 71 1006.1
20260504041004 41 261 2.0 3.0 0.00 0.21 0.00 70 1006.1
20260504040003 42 248 2.0 3.0 0.00 0.21 0.00 69 1005.8
20260504035503 42 253 2.0 3.0 0.00 0.21 0.21 70 1005.8
20260504035003 41 261 1.0 2.0 0.00 0.21 0.21 70 1005.8
20260504034503 41 270 0.0 0.0 0.00 0.21 0.21 71 1005.8
20260504033503 42 268 1.0 2.0 0.00 0.21 0.21 70 1005.8
20260504033004 42 270 2.0 3.0 0.00 0.21 0.21 70 1005.8
20260504032503 42 248 2.0 3.0 0.00 0.21 0.21 70 1005.7
20260504032004 42 270 2.0 3.0 0.00 0.21 0.21 69 1005.7
20260504031503 42 270 2.0 2.0 0.00 0.21 0.21 69 1005.7
20260504031004 42 270 2.0 2.0 0.00 0.21 0.21 68 1005.7
20260504030504 42 270 1.0 5.0 0.00 0.21 0.21 67 1005.7
20260504030004 43 270 3.0 3.0 0.00 0.21 0.21 67 1005.6
20260504025503 43 270 3.0 3.0 0.00 0.21 0.21 66 1005.6
20260504024504 43 270 3.0 3.0 0.00 0.21 0.21 66 1005.5
20260504023503 43 263 0.0 0.0 0.00 0.21 0.21 68 1005.6
20260504023004 43 270 0.0 0.0 0.00 0.21 0.21 65 1005.6
20260504022004 43 270 0.0 0.0 0.00 0.22 0.21 65 1005.6
20260504021501 44 270 0.0 2.0 0.00 0.23 0.21 64 1005.6
20260504020501 44 270 3.0 7.0 0.00 0.24 0.21 62 1005.5
20260504020001 44 281 5.0 6.0 0.00 0.25 0.21 62 1005.2
20260504015501 44 270 4.0 6.0 0.00 0.25 0.21 62 1005.2
20260504015001 45 277 5.0 8.0 0.00 0.25 0.21 60 1005.3
20260504014501 44 270 4.0 6.0 0.00 0.25 0.21 61 1005.3
20260504014002 45 289 3.0 6.0 0.00 0.25 0.21 61 1005.3
20260504013501 45 270 5.0 6.0 0.00 0.25 0.21 61 1005.1
20260504013001 45 270 5.0 10.0 0.00 0.25 0.21 58 1005.1
20260504012502 45 270 5.0 7.0 0.00 0.25 0.21 60 1004.9
20260504012001 45 285 5.0 7.0 0.00 0.25 0.21 61 1004.9
20260504011501 45 285 4.0 6.0 0.00 0.25 0.21 61 1004.9
20260504011002 45 281 2.0 5.0 0.00 0.25 0.21 61 1004.9
20260504010501 46 270 3.0 5.0 0.00 0.25 0.21 58 1004.9
20260504010002 46 292 10.0 10.0 0.00 0.26 0.21 56 1004.6
20260504004501 46 292 5.0 8.0 0.00 0.26 0.21 57 1004.4
20260504003501 46 290 5.0 8.0 0.00 0.26 0.21 58 1004.2
20260504003001 46 270 5.0 7.0 0.00 0.26 0.21 56 1004.2
20260504001501 47 270 5.0 9.0 0.00 0.26 0.21 54 1004.1
20260504001002 47 258 4.0 8.0 0.00 0.26 0.21 54 1003.8
20260504000502 47 270 3.0 5.0 0.00 0.26 0.21 54 1003.8
20260504000002 47 283 6.0 9.0 0.00 0.27 0.21 54 1003.7
20260503235502 47 337 5.0 8.0 0.00 0.27 0.21 53 1003.7
20260503235002 47 270 6.0 7.0 0.00 0.27 0.21 54 1003.6
20260503234501 48 270 3.0 9.0 0.00 0.27 0.21 53 1003.6
20260503233501 48 270 5.0 12.0 0.00 0.27 0.21 53 1003.4
20260503233001 48 283 6.0 12.0 0.00 0.27 0.21 51 1003.4
20260503232502 49 278 9.0 12.0 0.00 0.28 0.21 50 1003.2
20260503232002 49 270 8.0 13.0 0.00 0.28 0.21 49 1003.2
20260503231502 50 311 9.0 16.0 0.00 0.29 0.21 50 1003.2
20260503231001 50 297 9.0 13.0 0.00 0.29 0.21 49 1002.9
20260503230501 50 293 8.0 16.0 0.00 0.29 0.21 48 1002.9
20260503230001 50 289 11.0 16.0 0.00 0.30 0.21 47 1002.8
20260503225502 50 315 8.0 8.0 0.00 0.31 0.21 50 1002.8
20260503225002 50 294 7.0 13.0 0.00 0.31 0.21 50 1002.7
20260503224502 50 275 7.0 10.0 0.00 0.31 0.21 50 1002.6
20260503224001 50 276 7.0 12.0 0.00 0.32 0.21 51 1002.6
20260503223501 50 287 7.0 10.0 0.00 0.33 0.21 52 1002.3
20260503223002 51 270 6.0 9.0 0.00 0.33 0.21 51 1002.3
20260503222502 51 270 7.0 10.0 0.00 0.33 0.21 50 1002.2